This demonstration page uses our WeatherBlox Daily Observations layout. Learn more.

Left ArrowRight Arrow

44.89941, -97.11507

Hourly Observations for August 8, 2022

Temp ( °F °C ) Dew Point ( °F °C ) Humidity (%) Winds ( mph kmh ) Pressure ( in mb ) Visibility ( mi km ) Precip ( " mm )
12:53 am 00:53 Clear 53 11.7 52 11.1 96 96 N 3 6 30.10 1019 10 16 0.00 0.00
1:53 am 01:53 Clear 53 11.7 52 11.1 96 96 Calm 30.09 1019 10 16 0.00 0.00
2:53 am 02:53 Clear 52 11.1 51 10.6 97 97 Calm 30.09 1019 10 16 0.00 0.00
3:53 am 03:53 Clear 52 11.1 51 10.6 97 97 Calm 30.09 1019 10 16 0.00 0.00
4:53 am 04:53 Partly Cloudy 51 10.6 51 10.6 100 100 Calm 30.12 1020 10 16 0.00 0.00
5:34 am 05:34 Mostly Cloudy with Mist and Fog 51 10.6 51 10.6 100 100 Calm 30.12 1020 2 3 0.00 0.00
5:40 am 05:40 Mostly Cloudy with Mist and Fog 51 10.6 51 10.6 100 100 Calm 30.12 1020 1 2 0.00 0.00
5:53 am 05:53 Mostly Cloudy with Fog 51 10.6 51 10.6 100 100 Calm 30.12 1020 1 1 0.00 0.00
6:00 am 06:00 Mostly Cloudy with Fog 51 10.6 51 10.6 100 100 Calm 30.13 1020 0 0 0.00 0.00
6:53 am 06:53 Mostly Cloudy with Fog 51 10.6 51 10.6 100 100 Calm 30.13 1020 1 1 0.00 0.00
7:04 am 07:04 Partly Cloudy with Mist and Fog 51 10.6 51 10.6 100 100 Calm 30.14 1021 2 3 0.00 0.00
7:11 am 07:11 Partly Cloudy with Mist and Fog 51 10.6 51 10.6 100 100 SE 3 6 30.14 1021 5 8 0.00 0.00
7:14 am 07:14 Partly Cloudy with Mist and Fog 52 11.1 52 11.1 100 100 SSE 3 6 30.13 1020 2 2 0.00 0.00
7:16 am 07:16 Mostly Cloudy with Mist and Fog 52 11.1 52 11.1 100 100 SSE 5 7 30.13 1020 1 1 0.00 0.00
7:25 am 07:25 Mostly Cloudy with Fog 53 11.7 53 11.7 100 100 SSE 3 6 30.14 1021 0 0 0.00 0.00
7:38 am 07:38 Mostly Cloudy with Fog 53 11.7 53 11.7 100 100 Calm 30.14 1021 N/A 0.00 0.00
7:53 am 07:53 Mostly Cloudy with Fog 54 12.2 54 12.2 100 100 SSE 5 7 30.14 1021 N/A 0.00 0.00
8:13 am 08:13 Mostly Cloudy with Fog 55 12.8 55 12.8 100 100 SSE 3 6 30.13 1020 0 0 0.00 0.00
8:35 am 08:35 Cloudy with Mist and Fog 56 13.3 56 13.3 100 100 Calm 30.13 1020 1 2 0.00 0.00
8:39 am 08:39 Mostly Cloudy with Mist and Fog 56 13.3 56 13.3 100 100 Calm 30.13 1020 2 3 0.00 0.00
8:46 am 08:46 Mostly Cloudy 57 13.9 57 13.9 100 100 SSE 3 6 30.12 1020 10 16 0.00 0.00
8:53 am 08:53 Mostly Cloudy 57 13.9 57 13.9 100 100 SSE 3 6 30.15 1021 10 16 0.00 0.00
9:00 am 09:00 Mostly Sunny 58 14.4 57 13.9 97 97 SSE 5 7 30.13 1020 10 16 0.00 0.00
9:53 am 09:53 Sunny 63 17.2 58 14.4 84 84 VRB 5 7 30.15 1021 10 16 0.00 0.00
10:53 am 10:53 Sunny 67 19.4 56 13.3 68 68 VRB 3 6 30.14 1021 10 16 0.00 0.00
11:53 am 11:53 Sunny 69 20.6 58 14.4 68 68 W 6 9 30.14 1021 10 16 0.00 0.00
12:53 pm 12:53 Sunny 70 21.1 56 13.3 61 61 Calm 30.13 1020 10 16 0.00 0.00
1:53 pm 13:53 Sunny 73 22.8 56 13.3 55 55 VRB 5 7 30.12 1020 10 16 0.00 0.00
2:53 pm 14:53 Sunny 74 23.3 58 14.4 57 57 S 7 11 30.11 1020 10 16 0.00 0.00
3:53 pm 15:53 Sunny 75 23.9 57 13.9 54 54 S 8 13 30.10 1019 10 16 0.00 0.00
4:53 pm 16:53 Sunny 76 24.4 56 13.3 50 50 VRB 3 6 30.09 1019 10 16 0.00 0.00
5:53 pm 17:53 Sunny 75 23.9 57 13.9 54 54 SSW 8 13 30.08 1019 10 16 0.00 0.00
6:53 pm 18:53 Sunny 75 23.9 53 11.7 46 46 S 8 13 30.07 1018 10 16 0.00 0.00
7:53 pm 19:53 Sunny 72 22.2 58 14.4 61 61 S 6 9 30.06 1018 10 16 0.00 0.00
8:53 pm 20:53 Clear 68 20 58 14.4 70 70 S 3 6 30.06 1018 10 16 0.00 0.00
9:53 pm 21:53 Clear 66 18.9 58 14.4 75 75 Calm 30.07 1018 10 16 0.00 0.00
10:53 pm 22:53 Clear 64 17.8 56 13.3 75 75 SSE 5 7 30.07 1018 10 16 0.00 0.00
11:53 pm 23:53 Clear 62 16.7 57 13.9 84 84 SSE 6 9 30.07 1018 10 16 0.00 0.00

Powered by AerisWeather